FW0323 Weather Reports


Display with metric or nautical units.
time (UTC)temp
F
wind
direction
speed
MPH
gust
MPH
rain 1hr
in
rain 24hr
in
rain mn
in
humidity
%
barometer
mb
20260506044544 54 105 0.0 1.0 0.00 0.02 0.00 86 1010.8
20260506043035 55 112 0.0 1.0 0.00 0.02 0.00 87 1010.7
20260506041532 55 112 0.0 2.0 0.00 0.02 0.00 84 1010.8
20260506040049 56 127 0.0 1.0 0.00 0.02 0.00 86 1010.7
20260506034527 57 140 0.0 2.0 0.00 0.02 0.02 87 1010.4
20260506033027 57 141 0.0 1.0 0.00 0.02 0.02 89 1010.2
20260506031540 58 164 0.0 0.0 0.00 0.02 0.02 89 1010.2
20260506030025 58 164 0.0 0.0 0.00 0.02 0.02 86 1010.4
20260506024528 59 164 0.0 1.0 0.00 0.02 0.02 88 1010.4
20260506023023 59 120 0.0 1.0 0.00 0.02 0.02 88 1010.6
20260506021523 59 120 0.0 0.0 0.00 0.02 0.02 90 1010.6
20260506020022 60 120 0.0 1.0 0.01 0.02 0.02 90 1010.6
20260506014522 60 120 0.0 1.0 0.01 0.02 0.02 88 1010.7
20260506013021 60 120 0.0 1.0 0.01 0.02 0.02 88 1010.6
20260506011524 60 205 0.0 1.0 0.01 0.02 0.02 90 1010.6
20260506010021 60 241 0.0 2.0 0.00 0.01 0.01 89 1010.8
20260506004525 60 265 0.0 1.0 0.00 0.01 0.01 92 1010.4
20260506003021 60 158 0.0 3.0 0.01 0.01 0.01 91 1010.3
20260506001519 61 290 0.0 0.0 0.01 0.01 0.01 91 1009.5
20260506000021 61 290 0.0 1.0 0.01 0.01 0.01 88 1008.9
20260505234515 63 108 0.0 8.0 0.01 0.01 0.01 81 1008.5
20260505233014 65 60 0.0 3.0 0.00 0.00 0.00 73 1009.3
20260505231513 67 264 0.0 2.0 0.00 0.00 0.00 67 1009.2
20260505230021 68 285 4.0 11.0 0.00 0.00 0.00 59 1009.4
20260505224512 69 255 3.0 8.0 0.00 0.00 0.00 53 1008.1
20260505223014 69 68 2.0 9.0 0.00 0.00 0.00 53 1006.7
20260505221511 70 221 3.0 10.0 0.00 0.00 0.00 52 1006.5
20260505220010 71 287 4.0 17.0 0.00 0.00 0.00 51 1006.2
20260505214510 72 134 5.0 14.0 0.00 0.00 0.00 49 1006.1
20260505213009 72 213 4.0 13.0 0.00 0.00 0.00 50 1006.1
20260505211508 71 205 5.0 9.0 0.00 0.00 0.00 51 1006.0
20260505210007 73 141 3.0 9.0 0.00 0.00 0.00 49 1005.9
20260505204506 73 148 3.0 15.0 0.00 0.00 0.00 50 1006.1
20260505203005 73 111 3.0 10.0 0.00 0.00 0.00 48 1006.1
20260505201505 74 152 3.0 12.0 0.00 0.00 0.00 47 1006.0
20260505200001 75 202 6.0 20.0 0.00 0.00 0.00 45 1006.4
20260505194621 75 109 3.0 14.0 0.00 0.00 0.00 45 1006.3
20260505193059 75 98 2.0 11.0 0.00 0.00 0.00 45 1006.6
20260505191557 75 117 4.0 13.0 0.00 0.00 0.00 45 1006.7
20260505190053 76 259 4.0 11.0 0.00 0.00 0.00 45 1007.0
20260505184550 76 211 3.0 14.0 0.00 0.00 0.00 44 1007.2
20260505183049 75 167 5.0 11.0 0.00 0.00 0.00 46 1007.3
20260505181552 76 183 4.0 12.0 0.00 0.00 0.00 45 1007.6
20260505180046 74 111 7.0 15.0 0.00 0.00 0.00 47 1007.6
20260505174552 76 146 3.0 14.0 0.00 0.00 0.00 46 1007.6
20260505173043 77 132 4.0 9.0 0.00 0.00 0.00 44 1007.8
20260505171541 78 158 4.0 11.0 0.00 0.00 0.00 42 1008.0
20260505170039 79 176 3.0 13.0 0.00 0.00 0.00 39 1008.2
20260505164535 78 257 4.0 9.0 0.00 0.00 0.00 40 1008.6
20260505163031 77 180 4.0 11.0 0.00 0.00 0.00 40 1008.9
20260505161529 75 112 3.0 11.0 0.00 0.00 0.00 45 1009.3
20260505153020 73 207 5.0 13.0 0.00 0.00 0.00 44 1010.0
20260505151520 72 187 2.0 8.0 0.00 0.00 0.00 46 1010.3
20260505130112 63 251 2.0 7.0 0.00 0.00 0.00 53 1011.0
20260505124601 63 122 2.0 5.0 0.00 0.00 0.00 53 1010.7
20260505123052 62 67 1.0 4.0 0.00 0.00 0.00 54 1010.5
20260505121551 61 250 0.0 5.0 0.00 0.00 0.00 56 1010.7
20260505120058 59 346 2.0 6.0 0.00 0.00 0.00 59 1010.7
20260505114542 58 234 1.0 8.0 0.00 0.00 0.00 61 1010.8
20260505113044 56 193 0.0 6.0 0.00 0.00 0.00 68 1011.1
20260505111540 54 115 0.0 2.0 0.00 0.00 0.00 72 1010.9
20260505101533 50 133 0.0 1.0 0.00 0.00 0.00 76 1011.2
20260505100034 50 143 0.0 1.0 0.00 0.00 0.00 75 1010.9
20260505094535 49 139 0.0 3.0 0.00 0.00 0.00 76 1011.0
20260505093031 49 201 0.0 2.0 0.00 0.00 0.00 75 1011.1
20260505091531 49 199 0.0 0.0 0.00 0.00 0.00 76 1011.1
20260505090035 49 199 0.0 1.0 0.00 0.00 0.00 76 1011.1
20260505084625 49 52 0.0 1.0 0.00 0.00 0.00 75 1011.2
20260505083025 49 52 0.0 1.0 0.00 0.00 0.00 75 1011.3
20260505081534 50 276 0.0 1.0 0.00 0.00 0.00 73 1011.5
20260505080021 51 276 0.0 1.0 0.00 0.00 0.00 72 1011.5
20260505074519 52 155 0.0 2.0 0.00 0.00 0.00 70 1011.3
20260505073022 52 8 0.0 1.0 0.00 0.00 0.00 69 1011.3
20260505071539 53 299 0.0 2.0 0.00 0.00 0.00 67 1011.1
20260505070017 53 65 0.0 3.0 0.00 0.00 0.00 68 1011.2
20260505064522 52 150 0.0 2.0 0.00 0.00 0.00 71 1011.2
20260505063015 51 226 0.0 3.0 0.00 0.00 0.00 72 1011.2
20260505061515 51 188 0.0 2.0 0.00 0.00 0.00 72 1011.1
20260505060012 51 155 0.0 0.0 0.00 0.00 0.00 70 1011.1
20260505054508 52 155 0.0 0.0 0.00 0.00 0.00 68 1011.1
20260505053007 53 155 0.0 0.0 0.00 0.00 0.00 65 1011.2
20260505051508 54 195 0.0 1.0 0.00 0.00 0.00 64 1011.2